Time,TemperatureF,DewpointF,PressureIn,WindDirection,WindDirectionDegrees,WindSpeedMPH,WindSpeedGustMPH,Humidity,HourlyPrecipIn,Conditions,Clouds,dailyrainin,SoftwareType,DateUTC
2013-01-19 00:04:00,33.0,24.0,30.32,SSE,161,2.0,5.0,68,0.00,,,0.01,,2013-01-19 05:04:00,
2013-01-19 00:12:00,33.0,24.0,30.32,SSE,161,2.0,5.0,68,0.00,,,0.01,,2013-01-19 05:12:00,
2013-01-19 00:23:00,33.0,24.0,30.32,SSE,160,2.0,4.0,68,0.00,,,0.01,,2013-01-19 05:23:00,
2013-01-19 00:33:00,33.0,24.0,30.32,SSE,160,2.0,4.0,68,0.00,,,0.01,,2013-01-19 05:33:00,
2013-01-19 00:43:00,33.0,24.0,30.32,SSE,160,2.0,4.0,68,0.00,,,0.01,,2013-01-19 05:43:00,
2013-01-19 00:53:00,32.0,23.0,30.32,SSE,160,1.0,4.0,69,0.00,,,0.01,,2013-01-19 05:53:00,
2013-01-19 01:03:00,32.0,23.0,30.32,SSE,160,1.0,3.0,69,0.00,,,0.01,,2013-01-19 06:03:00,
2013-01-19 01:12:00,32.0,23.0,30.32,SSE,160,1.0,3.0,69,0.00,,,0.01,,2013-01-19 06:12:00,
2013-01-19 01:23:00,32.0,23.0,30.32,SSE,160,1.0,3.0,69,0.00,,,0.01,,2013-01-19 06:23:00,
2013-01-19 01:33:00,32.0,23.0,30.30,SSE,160,0.0,2.0,68,0.00,,,0.01,,2013-01-19 06:33:00,
2013-01-19 01:43:00,32.0,23.0,30.30,SSE,160,0.0,2.0,68,0.00,,,0.01,,2013-01-19 06:43:00,
2013-01-19 01:53:00,32.0,23.0,30.30,SSE,160,0.0,3.0,68,0.00,,,0.01,,2013-01-19 06:53:00,
2013-01-19 02:02:00,33.0,23.0,30.30,SSE,160,0.0,3.0,67,0.00,,,0.01,,2013-01-19 07:02:00,
2013-01-19 02:12:00,33.0,23.0,30.30,SSE,160,0.0,3.0,67,0.00,,,0.01,,2013-01-19 07:12:00,
2013-01-19 02:22:00,33.0,23.0,30.29,SSE,160,1.0,5.0,67,0.00,,,0.01,,2013-01-19 07:22:00,
2013-01-19 02:33:00,33.0,23.0,30.29,SSE,160,1.0,5.0,67,0.00,,,0.01,,2013-01-19 07:33:00,
2013-01-19 02:43:00,33.0,23.0,30.29,SSE,160,1.0,5.0,67,0.00,,,0.01,,2013-01-19 07:43:00,
2013-01-19 02:53:00,33.0,24.0,30.30,SSE,160,2.0,5.0,68,0.00,,,0.01,,2013-01-19 07:53:00,
2013-01-19 03:02:00,33.0,23.0,30.30,SSE,160,2.0,7.0,67,0.00,,,0.01,,2013-01-19 08:02:00,
2013-01-19 03:12:00,33.0,23.0,30.30,SSE,160,2.0,7.0,67,0.00,,,0.01,,2013-01-19 08:12:00,
2013-01-19 03:22:00,33.0,24.0,30.29,SSE,157,3.0,7.0,68,0.00,,,0.01,,2013-01-19 08:22:00,
2013-01-19 03:32:00,33.0,24.0,30.29,SSE,156,1.0,7.0,69,0.00,,,0.01,,2013-01-19 08:32:00,
2013-01-19 03:43:00,33.0,24.0,30.29,SSE,156,1.0,7.0,69,0.00,,,0.01,,2013-01-19 08:43:00,
2013-01-19 03:53:00,32.0,23.0,30.29,SSE,158,0.0,6.0,69,0.00,,,0.01,,2013-01-19 08:53:00,
2013-01-19 04:02:00,32.0,23.0,30.29,SSE,158,1.0,4.0,70,0.00,,,0.01,,2013-01-19 09:02:00,
2013-01-19 04:12:00,32.0,23.0,30.29,SSE,158,1.0,4.0,70,0.00,,,0.01,,2013-01-19 09:12:00,
2013-01-19 04:23:00,32.0,24.0,30.29,SSE,158,0.0,4.0,71,0.00,,,0.01,,2013-01-19 09:23:00,
2013-01-19 04:33:00,31.0,23.0,30.29,SSE,158,0.0,1.0,73,0.00,,,0.01,,2013-01-19 09:33:00,
2013-01-19 04:43:00,31.0,23.0,30.29,SSE,158,0.0,1.0,73,0.00,,,0.01,,2013-01-19 09:43:00,
2013-01-19 04:53:00,30.0,23.0,30.29,SSE,158,0.0,2.0,74,0.00,,,0.01,,2013-01-19 09:53:00,
2013-01-19 05:02:00,29.0,22.0,30.28,SSE,158,0.0,2.0,76,0.00,,,0.01,,2013-01-19 10:02:00,
2013-01-19 05:12:00,29.0,22.0,30.28,SSE,158,0.0,2.0,76,0.00,,,0.01,,2013-01-19 10:12:00,
2013-01-19 05:23:00,29.0,23.0,30.29,SSE,158,0.0,1.0,77,0.00,,,0.01,,2013-01-19 10:23:00,
2013-01-19 05:32:00,31.0,24.0,30.28,SSE,156,2.0,7.0,75,0.00,,,0.01,,2013-01-19 10:32:00,
2013-01-19 05:43:00,31.0,24.0,30.28,SSE,156,2.0,7.0,75,0.00,,,0.01,,2013-01-19 10:43:00,
2013-01-19 05:52:00,31.0,24.0,30.28,SSE,157,0.0,3.0,74,0.00,,,0.01,,2013-01-19 10:52:00,
2013-01-19 06:03:00,30.0,23.0,30.28,SSE,158,2.0,8.0,74,0.00,,,0.01,,2013-01-19 11:03:00,
2013-01-19 06:12:00,30.0,23.0,30.28,SSE,158,2.0,8.0,74,0.00,,,0.01,,2013-01-19 11:12:00,
2013-01-19 07:48:00,29.0,21.0,30.27,SSE,158,1.0,5.0,72,0.00,,,0.01,,2013-01-19 12:48:00,
2013-01-19 07:53:00,29.0,21.0,30.27,SSE,158,0.0,4.0,72,0.00,,,0.01,,2013-01-19 12:53:00,
2013-01-19 08:03:00,29.0,20.0,30.27,SSE,158,1.0,4.0,70,0.00,,,0.01,,2013-01-19 13:03:00,
2013-01-19 08:13:00,29.0,20.0,30.27,SSE,158,1.0,4.0,70,0.00,,,0.01,,2013-01-19 13:13:00,
2013-01-19 08:22:00,30.0,21.0,30.27,SSE,158,1.0,4.0,69,0.00,,,0.01,,2013-01-19 13:22:00,
2013-01-19 08:33:00,31.0,21.0,30.27,SSE,158,0.0,2.0,67,0.00,,,0.01,,2013-01-19 13:33:00,
2013-01-19 08:43:00,31.0,21.0,30.27,SSE,158,0.0,2.0,67,0.00,,,0.01,,2013-01-19 13:43:00,
2013-01-19 08:53:00,31.0,21.0,30.27,SSE,158,0.0,2.0,67,0.00,,,0.01,,2013-01-19 13:53:00,
2013-01-19 09:03:00,33.0,20.0,30.27,SSE,158,1.0,5.0,59,0.00,,,0.01,,2013-01-19 14:03:00,
2013-01-19 09:12:00,33.0,20.0,30.27,SSE,158,1.0,5.0,59,0.00,,,0.01,,2013-01-19 14:12:00,
2013-01-19 09:23:00,35.0,19.0,30.27,SSE,158,2.0,5.0,52,0.00,,,0.01,,2013-01-19 14:23:00,
2013-01-19 09:34:00,34.0,23.0,30.27,SSE,158,1.0,4.0,63,0.00,,,0.01,,2013-01-19 14:34:00,
2013-01-19 09:43:00,34.0,23.0,30.27,SSE,158,1.0,4.0,63,0.00,,,0.01,,2013-01-19 14:43:00,
2013-01-19 09:53:00,35.0,23.0,30.28,SSE,158,2.0,5.0,61,0.00,,,0.01,,2013-01-19 14:53:00,
2013-01-19 10:03:00,36.0,22.0,30.28,SSE,155,2.0,4.0,57,0.00,,,0.01,,2013-01-19 15:03:00,
2013-01-19 10:13:00,36.0,22.0,30.28,SSE,155,2.0,4.0,57,0.00,,,0.01,,2013-01-19 15:13:00,
2013-01-19 10:23:00,39.0,21.0,30.28,SSE,156,0.0,4.0,48,0.00,,,0.01,,2013-01-19 15:23:00,
2013-01-19 10:33:00,41.0,22.0,30.28,SSE,156,0.0,4.0,47,0.00,,,0.01,,2013-01-19 15:33:00,
2013-01-19 10:43:00,41.0,22.0,30.28,SSE,156,0.0,4.0,47,0.00,,,0.01,,2013-01-19 15:43:00,
2013-01-19 10:53:00,42.0,20.0,30.28,SSE,156,0.0,4.0,41,0.00,,,0.01,,2013-01-19 15:53:00,
2013-01-19 11:03:00,43.0,17.0,30.28,SSE,156,0.0,5.0,35,0.00,,,0.01,,2013-01-19 16:03:00,
2013-01-19 11:13:00,43.0,17.0,30.28,SSE,156,0.0,5.0,35,0.00,,,0.01,,2013-01-19 16:13:00,
2013-01-19 11:23:00,45.0,14.0,30.27,SSE,159,1.0,4.0,28,0.00,,,0.01,,2013-01-19 16:23:00,
2013-01-19 11:33:00,45.0,17.0,30.27,SSE,162,1.0,5.0,32,0.00,,,0.01,,2013-01-19 16:33:00,
2013-01-19 11:43:00,45.0,17.0,30.27,SSE,162,1.0,5.0,32,0.00,,,0.01,,2013-01-19 16:43:00,
2013-01-19 11:53:00,45.0,19.0,30.26,SSE,162,1.0,5.0,35,0.00,,,0.01,,2013-01-19 16:53:00,
2013-01-19 12:03:00,46.0,19.0,30.25,SSE,162,0.0,3.0,33,0.00,,,0.00,,2013-01-19 17:03:00,
2013-01-19 12:22:00,46.0,19.0,30.25,SSE,162,0.0,3.0,33,0.00,,,0.00,,2013-01-19 17:22:00,
2013-01-19 12:29:00,47.0,18.0,30.24,SSE,162,0.0,4.0,31,0.00,,,0.00,,2013-01-19 17:29:00,
2013-01-19 12:37:00,48.0,16.0,30.23,SSE,162,0.0,4.0,28,0.00,,,0.00,,2013-01-19 17:37:00,
2013-01-19 12:49:00,48.0,16.0,30.23,SSE,162,0.0,4.0,28,0.00,,,0.00,,2013-01-19 17:49:00,
2013-01-19 12:54:00,49.0,17.0,30.22,SSE,162,0.0,3.0,28,0.00,,,0.00,,2013-01-19 17:54:00,
2013-01-19 13:13:00,50.0,27.0,30.21,SSE,162,0.0,5.0,40,0.00,,,0.00,,2013-01-19 18:13:00,
2013-01-19 13:29:00,51.0,14.0,30.20,SSE,160,3.0,7.0,22,0.00,,,0.00,,2013-01-19 18:29:00,
2013-01-19 13:46:00,50.0,14.0,30.19,SSE,162,4.0,11.0,23,0.00,,,0.00,,2013-01-19 18:46:00,
2013-01-19 13:55:00,50.0,15.0,30.18,SSE,159,4.0,10.0,24,0.00,,,0.00,,2013-01-19 18:55:00,
2013-01-19 14:10:00,49.0,18.0,30.18,SSE,156,4.0,12.0,29,0.00,,,0.00,,2013-01-19 19:10:00,
2013-01-19 14:22:00,49.0,18.0,30.18,SSE,156,4.0,12.0,29,0.00,,,0.00,,2013-01-19 19:22:00,
2013-01-19 14:31:00,50.0,17.0,30.17,SSE,159,2.0,6.0,27,0.00,,,0.00,,2013-01-19 19:31:00,
2013-01-19 14:40:00,50.0,16.0,30.16,SSE,153,3.0,10.0,26,0.00,,,0.00,,2013-01-19 19:40:00,
2013-01-19 14:48:00,50.0,16.0,30.16,SSE,153,3.0,10.0,26,0.00,,,0.00,,2013-01-19 19:48:00,
2013-01-19 14:54:00,51.0,18.0,30.15,SSE,158,3.0,8.0,27,0.00,,,0.00,,2013-01-19 19:54:00,
2013-01-19 15:11:00,51.0,20.0,30.15,SSE,160,1.0,6.0,29,0.00,,,0.00,,2013-01-19 20:11:00,
2013-01-19 15:20:00,51.0,20.0,30.15,SSE,160,1.0,6.0,29,0.00,,,0.00,,2013-01-19 20:20:00,
2013-01-19 15:39:00,50.0,29.0,30.14,SSE,159,0.0,3.0,44,0.00,,,0.00,,2013-01-19 20:39:00,
2013-01-19 15:49:00,50.0,29.0,30.14,SSE,159,0.0,3.0,44,0.00,,,0.00,,2013-01-19 20:49:00,
2013-01-19 15:54:00,49.0,29.0,30.14,SSE,159,0.0,4.0,45,0.00,,,0.00,,2013-01-19 20:54:00,
2013-01-19 16:08:00,48.0,29.0,30.13,SSE,163,1.0,5.0,48,0.00,,,0.00,,2013-01-19 21:08:00,
2013-01-19 16:15:00,48.0,29.0,30.13,SSE,163,1.0,5.0,48,0.00,,,0.00,,2013-01-19 21:15:00,
2013-01-19 16:28:00,48.0,29.0,30.13,SSE,163,1.0,4.0,47,0.00,,,0.00,,2013-01-19 21:28:00,
2013-01-19 16:46:00,48.0,29.0,30.13,SSE,163,0.0,4.0,48,0.00,,,0.00,,2013-01-19 21:46:00,
2013-01-19 16:52:00,48.0,29.0,30.13,SSE,163,0.0,4.0,48,0.00,,,0.00,,2013-01-19 21:52:00,
2013-01-19 16:57:00,47.0,28.0,30.12,SSE,163,1.0,5.0,47,0.00,,,0.00,,2013-01-19 21:57:00,
2013-01-19 17:15:00,47.0,28.0,30.12,SSE,162,1.0,3.0,48,0.00,,,0.00,,2013-01-19 22:15:00,
2013-01-19 17:28:00,47.0,28.0,30.12,SSE,162,1.0,3.0,48,0.00,,,0.00,,2013-01-19 22:28:00,
2013-01-19 17:35:00,45.0,27.0,30.12,SSE,162,1.0,4.0,50,0.00,,,0.00,,2013-01-19 22:35:00,
2013-01-19 17:49:00,45.0,27.0,30.12,SSE,162,1.0,4.0,50,0.00,,,0.00,,2013-01-19 22:49:00,
2013-01-19 17:59:00,43.0,27.0,30.12,SSE,162,2.0,5.0,53,0.00,,,0.00,,2013-01-19 22:59:00,
2013-01-19 18:14:00,42.0,27.0,30.11,SSE,162,1.0,4.0,56,0.00,,,0.00,,2013-01-19 23:14:00,
2013-01-19 18:27:00,41.0,27.0,30.11,SSE,162,2.0,6.0,57,0.00,,,0.00,,2013-01-19 23:27:00,
2013-01-19 18:35:00,40.0,26.0,30.11,SSE,162,3.0,5.0,56,0.00,,,0.00,,2013-01-19 23:35:00,
2013-01-19 18:47:00,40.0,26.0,30.11,SSE,162,3.0,5.0,56,0.00,,,0.00,,2013-01-19 23:47:00,
2013-01-19 19:00:00,40.0,26.0,30.11,SSE,162,4.0,6.0,56,0.00,,,0.00,,2013-01-20 00:00:00,
2013-01-19 19:09:00,40.0,26.0,30.11,SSE,162,2.0,6.0,56,0.00,,,0.00,,2013-01-20 00:09:00,
2013-01-19 19:21:00,40.0,25.0,30.11,SSE,160,4.0,9.0,55,0.00,,,0.00,,2013-01-20 00:21:00,
2013-01-19 19:26:00,40.0,26.0,30.12,SSE,162,2.0,5.0,56,0.00,,,0.00,,2013-01-20 00:26:00,
2013-01-19 19:47:00,40.0,25.0,30.12,SSE,160,3.0,9.0,55,0.00,,,0.00,,2013-01-20 00:47:00,
2013-01-19 19:54:00,40.0,25.0,30.11,SSE,160,4.0,9.0,55,0.00,,,0.00,,2013-01-20 00:54:00,
2013-01-19 20:04:00,40.0,25.0,30.11,SSE,160,4.0,9.0,55,0.00,,,0.00,,2013-01-20 01:04:00,
2013-01-19 20:28:00,39.0,25.0,30.11,SSE,157,3.0,9.0,58,0.00,,,0.00,,2013-01-20 01:28:00,
2013-01-19 20:38:00,39.0,26.0,30.11,SSE,154,3.0,8.0,60,0.00,,,0.00,,2013-01-20 01:38:00,
2013-01-19 20:49:00,39.0,26.0,30.11,SSE,154,3.0,8.0,60,0.00,,,0.00,,2013-01-20 01:49:00,
2013-01-19 20:59:00,38.0,26.0,30.10,SSE,162,3.0,7.0,61,0.00,,,0.00,,2013-01-20 01:59:00,
2013-01-19 21:09:00,38.0,27.0,30.10,SSE,159,4.0,8.0,63,0.00,,,0.00,,2013-01-20 02:09:00,
2013-01-19 21:15:00,38.0,27.0,30.10,SSE,159,4.0,8.0,63,0.00,,,0.00,,2013-01-20 02:15:00,
2013-01-19 21:27:00,37.0,26.0,30.09,SSE,160,3.0,8.0,63,0.00,,,0.00,,2013-01-20 02:27:00,
2013-01-19 21:37:00,37.0,26.0,30.09,SSE,158,3.0,7.0,64,0.00,,,0.00,,2013-01-20 02:37:00,
2013-01-19 21:45:00,37.0,26.0,30.09,SSE,158,3.0,7.0,64,0.00,,,0.00,,2013-01-20 02:45:00,
2013-01-19 21:56:00,36.0,25.0,30.09,SSE,160,4.0,9.0,64,0.00,,,0.00,,2013-01-20 02:56:00,
2013-01-19 22:09:00,36.0,25.0,30.09,SSE,159,3.0,6.0,63,0.00,,,0.00,,2013-01-20 03:09:00,
2013-01-19 22:15:00,36.0,25.0,30.09,SSE,159,3.0,6.0,63,0.00,,,0.00,,2013-01-20 03:15:00,
2013-01-19 22:25:00,38.0,25.0,30.09,SSE,158,1.0,9.0,58,0.00,,,0.00,,2013-01-20 03:25:00,
2013-01-19 22:39:00,37.0,25.0,30.08,SSE,159,2.0,8.0,62,0.00,,,0.00,,2013-01-20 03:39:00,
2013-01-19 22:45:00,37.0,25.0,30.08,SSE,159,2.0,8.0,62,0.00,,,0.00,,2013-01-20 03:45:00,
2013-01-19 22:54:00,38.0,23.0,30.08,SSE,155,2.0,9.0,55,0.00,,,0.00,,2013-01-20 03:54:00,
2013-01-19 23:05:00,40.0,21.0,30.07,SSE,160,2.0,11.0,47,0.00,,,0.00,,2013-01-20 04:05:00,
2013-01-19 23:15:00,40.0,21.0,30.07,SSE,160,2.0,11.0,47,0.00,,,0.00,,2013-01-20 04:15:00,
2013-01-19 23:27:00,41.0,21.0,30.07,SSE,156,1.0,16.0,44,0.00,,,0.00,,2013-01-20 04:27:00,
2013-01-19 23:37:00,41.0,19.0,30.06,SSE,162,3.0,11.0,40,0.00,,,0.00,,2013-01-20 04:37:00,
2013-01-19 23:45:00,41.0,19.0,30.06,SSE,162,3.0,11.0,40,0.00,,,0.00,,2013-01-20 04:45:00,
2013-01-19 23:54:00,41.0,19.0,30.06,SSE,155,5.0,16.0,40,0.00,,,0.00,,2013-01-20 04:54:00,